Burlington, VT

3:05 AM EDT on September 25, 2017 (GMT -0400)
Burlington International

Weather History for KBTV - March, 2014

Change the Weather History Date:

Tuesday, March 4, 2014

  Actual Average Record
Temperature  
Mean Temperature 7 °F 26 °F  
Max Temperature 21 °F 35 °F 57 °F (1953)
Min Temperature -7 °F 17 °F -24 °F (1938)
Degree Days  
Heating Degree Days 58 39  
Month to date heating degree days 214 157  
Since 1 July heating degree days 5679 5567  
Cooling Degree Days 0 0  
Month to date cooling degree days 0 0  
Year to date cooling degree days 0 0  
Moisture  
Dew Point -2 °F    
Average Humidity 58    
Maximum Humidity 80    
Minimum Humidity 35    
Precipitation  
Precipitation 0.01 in 0.07 in 1.42 in (1971)
Month to date precipitation 0.04 0.26  
Year to date precipitation 4.32 4.08  
Snow  
Snow 0.10 in 0.60 in 13.80 in (2006)
Month to date snowfall 1.5 2.5  
Since 1 July snowfall 59.8 63.3  
Snow Depth 5.00 in    
Sea Level Pressure  
Sea Level Pressure 30.33 in    
Wind  
Wind Speed 4 mph (SSE)    
Max Wind Speed 12 mph    
Max Gust Speed 15 mph    
Visibility 9 miles    
Events Snow    
T = Trace of Precipitation, MM = Missing Value Source: NWS Daily Summary

Daily Weather History Graph

Daily Weather History Graph

Search for Another Location

Airport or City:

Trip Planner

Search our weather history database for the weather conditions in past years. The results will help you decide how hot, cold, wet, or windy it might be!

Date:

Astronomy

Mar. 04, 2014 Rise Set
Actual Time 6:24 AM EST 5:44 PM EST
Civil Twilight 5:55 AM EST 6:13 PM EST
Nautical Twilight 5:22 AM EST 6:47 PM EST
Astronomical Twilight 4:48 AM EST 7:21 PM EST
Moon 7:59 AM EST (3/4) 9:59 PM EST (3/4)
Length of Visible Light 12h 17m
Length of Day
11h 19m
Waxing Crescent, 14% of the Moon is Illuminated
Mar 4
Waxing Crescent
Mar 8
First Quarter
Mar 16
Full
Mar 23
Last Quarter
Mar 30
New

Hourly Weather History & Observations

Time (EST) Temp. Windchill Dew Point Humidity Pressure Visibility Wind Dir Wind Speed Gust Speed Precip Events Conditions
12:54 AM -0.9 °F -8.9 °F -11.0 °F 62% 30.35 in 10.0 mi ENE 3.5 mph - N/A   Clear
1:54 AM -2.0 °F - -9.9 °F 69% 30.36 in 10.0 mi Calm Calm - N/A   Clear
2:54 AM -4.0 °F -14.6 °F -11.0 °F 72% 30.35 in 10.0 mi SE 4.6 mph - N/A   Clear
3:54 AM -6.0 °F - -11.9 °F 75% 30.35 in 10.0 mi Calm Calm - N/A   Clear
4:54 AM -6.0 °F - -11.9 °F 75% 30.36 in 10.0 mi Calm Calm - N/A   Clear
5:54 AM -7.1 °F -15.9 °F -13.0 °F 75% 30.36 in 10.0 mi East 3.5 mph - N/A   Clear
6:54 AM -7.1 °F - -13.0 °F 75% 30.38 in 10.0 mi Calm Calm - N/A   Clear
7:54 AM -0.9 °F - -9.9 °F 66% 30.38 in 10.0 mi Calm Calm - N/A   Scattered Clouds
8:54 AM 3.9 °F - -7.1 °F 60% 30.38 in 10.0 mi Calm Calm - N/A   Scattered Clouds
9:54 AM 10.0 °F -1.9 °F -5.1 °F 51% 30.37 in 10.0 mi SSW 8.1 mph - N/A   Scattered Clouds
10:54 AM 12.9 °F 2.6 °F -4.0 °F 47% 30.34 in 10.0 mi Variable 6.9 mph - N/A   Scattered Clouds
11:54 AM 16.0 °F 4.4 °F -2.9 °F 43% 30.32 in 10.0 mi South 9.2 mph - N/A   Mostly Cloudy
12:54 PM 17.1 °F 7.6 °F -5.1 °F 37% 30.30 in 10.0 mi South 6.9 mph - N/A   Mostly Cloudy
1:54 PM 19.9 °F 11.1 °F -4.0 °F 35% 30.28 in 10.0 mi SSW 6.9 mph - N/A   Mostly Cloudy
2:54 PM 21.0 °F 12.4 °F -2.9 °F 35% 30.27 in 10.0 mi South 6.9 mph - N/A   Mostly Cloudy
3:54 PM 21.0 °F 12.4 °F -0.9 °F 38% 30.29 in 10.0 mi SW 6.9 mph - N/A   Overcast
4:54 PM 19.9 °F 10.1 °F 5.0 °F 52% 30.30 in 10.0 mi WSW 8.1 mph - N/A   Overcast
5:54 PM 16.0 °F 5.3 °F 7.0 °F 68% 30.31 in 5.0 mi North 8.1 mph - 0.00 in Snow Light Snow
6:54 PM 15.1 °F 6.4 °F 8.1 °F 74% 30.32 in 7.0 mi North 5.8 mph - 0.01 in   Overcast
7:02 PM 14.0 °F 8.2 °F 8.1 °F 77% 30.29 in 10.0 mi North 3.5 mph - N/A   Overcast
7:54 PM 15.1 °F 9.4 °F 8.1 °F 74% 30.32 in 4.0 mi East 3.5 mph - 0.00 in Snow Light Snow
8:54 PM 15.1 °F - 9.0 °F 77% 30.31 in 8.0 mi Calm Calm - 0.00 in   Overcast
9:54 PM 15.1 °F 9.4 °F 9.0 °F 77% 30.31 in 7.0 mi NNW 3.5 mph - 0.00 in   Overcast
10:54 PM 14.0 °F - 9.0 °F 80% 30.30 in 9.0 mi Calm Calm - 0.00 in   Mostly Cloudy
11:54 PM 14.0 °F - 10.0 °F 84% 30.30 in 5.0 mi Calm Calm - 0.00 in Snow Light Snow